Regional Weather Roundup
Issued by NWS Kansas City/Pleasant Hill, MO

Home | Current Version | Previous Version | Graphics & Text | Print | Product List | Glossary Off
Versions: 1 2 3 4 5 6 7 8 9 10 11 12 13 14 15 16 17 18 19 20 21 22 23 24 25 26 27 28 29 30 31 32 33 34 35 36 37 38 39 40 41 42 43 44 45 46 47 48 49 50

000
ASUS43 KEAX 272210
RWREAX

WEATHER ROUNDUP FOR EASTERN KANSAS AND NORTHWEST MISSOURI
NATIONAL WEATHER SERVICE KANSAS CITY/PLEASANT HILL MO
400 PM CST MON FEB 27 2017

KSZ040-057-103>105-MOZ028-029-037-043-272300-
...KANSAS CITY METROPOLITAN AREA...

CITY           SKY/WX    TMP DP  RH WIND       PRES   REMARKS
K.C. INTL      PTSUNNY   61  33  35 SE18      29.81F
K.C. DOWNTOWN  CLOUDY    63  34  33 SE12G21   29.82F
LEES SUMMIT    CLOUDY    63  35  35 SE14      29.84F
OLATHE - IXD   PTSUNNY   63  39  41 SE20      29.81F
OLATHE - OJC   PTSUNNY   61  40  45 SE14      29.81F
LAWRENCE         N/A     62  38  40 MISG      29.80F

$$

MOZ001>008-011>017-020>025-030>033-038>040-044>046-053-054-272300-
...NORTHERN AND CENTRAL MISSOURI...

CITY           SKY/WX    TMP DP  RH WIND       PRES   REMARKS
ST. JOSEPH     MOSUNNY   61  33  35 SE14      29.81F
MOSBY          CLOUDY    63  30  29 S15       29.84F
WARRENSBURG    PTSUNNY   64  32  29 SE17      29.85F
WHITEMAN AFB   PTSUNNY   62  36  37 S12G24    29.86F
CLINTON        CLOUDY    64  39  39 S16       29.87F
SEDALIA        CLOUDY    64  36  35 S18G24    29.90F
WARSAW         NOT AVBL
CHILLICOTHE      N/A     62  30  29 S8G18     29.89F
KIRKSVILLE     MOSUNNY   60  27  28 SE16      29.92F

$$

MOZ041-047>049-056>058-063>065-088>090-097-272300-
...EASTERN AND SOUTHERN MISSOURI...

CITY           SKY/WX    TMP DP  RH WIND       PRES   REMARKS
ST. LOUIS INTL MOSUNNY   65  39  38 S12       30.01F
SPIRIT OF STL  MOSUNNY   66  36  32 S14       29.98F
COLUMBIA       MOSUNNY   65  34  31 SE16G23   29.92F
JEFFERSON CITY MOSUNNY   64  34  32 SE15      29.93F
ROLLA          CLOUDY    63  35  35 S14G23    29.95S
OSAGE BEACH    CLOUDY    64  37  36 S8        29.93F
SPRINGFIELD    SUNNY     64  44  48 SE14G25   29.90F
BRANSON        PTSUNNY   66  48  52 SE15      29.94F
JOPLIN         PTSUNNY   67  52  58 S21       29.86F
WEST PLAINS    PTSUNNY   63  44  50 SE13      30.00S

$$

IAZ060-094-KSZ022-034>040-054-083-096-NEZ052-066-093-272300-
...KANSAS...SOUTHEAST NEBRASKA AND IOWA...

CITY           SKY/WX    TMP DP  RH WIND       PRES   REMARKS
TOPEKA         SUNNY     64  41  42 SE22G30   29.76F
MANHATTAN      PTSUNNY   64  46  52 S23G30    29.72F
EMPORIA        SUNNY     61  47  59 S23G29    29.76F
CHANUTE        MOSUNNY   64  50  60 S15       29.81F
WICHITA        PTSUNNY   62  48  60 S16       29.75F
OMAHA          PTSUNNY   57  26  30 SE24G30   29.77F
LINCOLN        CLOUDY    56  35  45 S23       29.76F
FALLS CITY     PTSUNNY   59  33  37 SE18G28   29.77F
LAMONI         CLOUDY    56  22  26 SE12      29.86F
DES MOINES     CLOUDY    55  24  30 SE13      29.89F

$$




USA.gov is the U.S. government's official web portal to all federal, state and local government web resources and services.